Home   Weather   Beira   Past weeks

Flag for Mozambique Past Weather in Beira, Mozambique — Yesterday and Last 2 Weeks

Now
79 °F

Passing clouds.


Feels Like: 82 °F
Forecast: 69 / 77 °F
Wind: 14 mph from South

Location: Beira Airport

Current Time: Jun 29, 2017 at 4:08:36 pm

Latest Report: Jun 29, 2017 at 3:00 pm


Visibility: N/A

Pressure: 30.12 "Hg

Humidity: 79%

Dew Point: 72 °F

Location of BeiraLocation

Past Weather in Beira — Graph

°F

Beira Temperature Yesterday

Maximum temperature yesterday: 81 °F (at 1:00 pm)
Minimum temperature yesterday: 63 °F (at 6:00 am)
Average temperature yesterday: 71 °F

High & Low Weather Summary for the Past Weeks

 TemperatureHumidityPressure
High84 °F (Jun 22, 4:00 pm)100% (Jun 15, 5:00 am)30.36 "Hg (Jun 15, 5:00 am)
Low63 °F (Jun 21, 4:00 am)29% (Jun 19, 5:00 am)29.98 "Hg (Jun 15, 2:00 pm)
Average72 °F82%30.13 "Hg
* Reported Jun 14 4:00 pm — Jun 29 2:00 pm, Beira. Weather by CustomWeather, © 2017

Note: Actual official high and low records may vary slightly from our data, if they occured in-between our weather recording intervals... More about our weather records

Advertising

Beira Weather History for the Previous 24 Hours

Scroll right to see more
 ConditionsComfort  
Time TempWeatherWind HumidityBarometerVisibility
2:00 pm
Thu, Jun 29
79 °FPassing clouds.14 mph79%30.12 "HgN/A
1:00 pm81 °FPassing clouds.10 mph70%30.12 "HgN/A
12:00 pm79 °FPassing clouds.7 mph70%30.15 "HgN/A
11:00 am81 °FPassing clouds.6 mph74%30.15 "HgN/A
10:00 am75 °FPassing clouds.3 mph78%30.18 "HgN/A
9:00 am73 °FPassing clouds.3 mph78%30.18 "HgN/A
8:00 am68 °FPassing clouds.3 mph83%30.15 "HgN/A
7:00 am66 °FPassing clouds.2 mph94%30.12 "HgN/A
6:00 am66 °FPassing clouds.3 mph94%30.09 "HgN/A
5:00 am66 °FClear.3 mph94%30.09 "Hg10 mi
4:00 am64 °FClear.3 mph100%30.09 "Hg10 mi
3:00 am64 °FClear.6 mph100%30.09 "Hg10 mi
9:00 pm
Wed, Jun 28
70 °FPassing clouds.No wind83%30.09 "HgN/A
8:00 pm70 °FPassing clouds.2 mph94%30.09 "HgN/A
7:00 pm70 °FPassing clouds.2 mph94%30.09 "HgN/A
6:00 pm75 °FPassing clouds.5 mph78%30.09 "HgN/A
5:00 pm75 °FPassing clouds.9 mph78%30.09 "HgN/A
4:00 pm81 °FPassing clouds.9 mph66%30.09 "HgN/A
Weather by CustomWeather, © 2017

See weather overviewHow to use our weather pages